Weather History for Milwaukee Timmerman, WI

Change the Weather History Date:

Monday, January 21, 2013

  Actual Average Record
Temperature  
Mean Temperature 16 °F -  
Max Temperature 35 °F 31 °F 54 °F (1957)
Min Temperature -4 °F 17 °F -19 °F (1963)
Degree Days  
Heating Degree Days 48    
Moisture  
Dew Point -6 °F    
Average Humidity 61    
Maximum Humidity 79    
Minimum Humidity 47    
Precipitation  
Precipitation 0.00 in - - ()
Sea Level Pressure  
Sea Level Pressure 30.16 in    
Wind  
Wind Speed 10 mph (WNW)    
Max Wind Speed 22 mph    
Max Gust Speed 28 mph    
Visibility 10 miles    
Events Snow    
Averages and records for this station are not official NWS values.
T = Trace of Precipitation, MM = Missing Value Source: NWS Daily Summary

Daily Weather History Graph

Daily Weather History Graph

Search for Another Location

Airport:

Trip Planner

Search our weather history database for the weather conditions in past years. The results will help you decide how hot, cold, wet, or windy it might be!

Date:

Astronomy

Jan. 21, 2013 Rise Set
Actual Time 7:17 AM CST 4:50 PM CST
Civil Twilight 6:46 AM CST 5:21 PM CST
Nautical Twilight 6:11 AM CST 5:56 PM CST
Astronomical Twilight 5:37 AM CST 6:29 PM CST
Moon 12:29 PM CST (1/21) 2:45 AM CST (1/21)
Length of Visible Light 10h 35m
Length of Day
9h 33m
Waxing Gibbous, 75% of the Moon is Illuminated
Jan 21
Waxing Gibbous
Jan 26
Full
Feb 3
Last Quarter
Feb 10
New
Feb 17
First Quarter

Hourly Weather History & Observations

Time (CST) Temp. Windchill Dew Point Humidity Pressure Visibility Wind Dir Wind Speed Gust Speed Precip Events Conditions
12:15 AM 10.4 °F 2.2 °F -0.4 °F 62% 30.15 in 10.0 mi West 4.6 mph - N/A   Overcast
12:35 AM 10.4 °F 0.8 °F -0.4 °F 62% 30.15 in 10.0 mi West 5.8 mph - N/A   Overcast
12:55 AM 10.4 °F 0.8 °F -0.4 °F 62% 30.14 in 10.0 mi WNW 5.8 mph - N/A   Overcast
1:15 AM 10.4 °F -2.4 °F -0.4 °F 62% 30.14 in 10.0 mi WNW 9.2 mph - N/A   Overcast
1:35 AM 10.4 °F -0.4 °F -0.4 °F 62% 30.14 in 10.0 mi WNW 6.9 mph - N/A   Overcast
1:55 AM 10.4 °F 2.2 °F -0.4 °F 62% 30.14 in 10.0 mi WNW 4.6 mph - N/A   Overcast
2:15 AM 10.4 °F 0.8 °F -0.4 °F 62% 30.14 in 10.0 mi WNW 5.8 mph - N/A   Overcast
2:35 AM 10.4 °F 0.8 °F -0.4 °F 62% 30.12 in 10.0 mi WNW 5.8 mph - N/A   Overcast
2:55 AM 10.4 °F -0.4 °F -0.4 °F 62% 30.12 in 10.0 mi WNW 6.9 mph - N/A   Overcast
3:15 AM 8.6 °F -2.6 °F -0.4 °F 67% 30.11 in 10.0 mi WNW 6.9 mph - N/A   Scattered Clouds
3:35 AM 8.6 °F 0.1 °F -0.4 °F 67% 30.10 in 10.0 mi WNW 4.6 mph - N/A   Clear
3:55 AM 8.6 °F -1.3 °F -0.4 °F 67% 30.10 in 10.0 mi WNW 5.8 mph - N/A   Scattered Clouds
4:15 AM 8.6 °F -3.7 °F 1.4 °F 73% 30.09 in 10.0 mi WNW 8.1 mph - N/A   Mostly Cloudy
4:55 AM 8.6 °F -7.0 °F 3.2 °F 79% 30.10 in 2.5 mi NW 12.7 mph 19.6 mph N/A Snow Light Snow
5:15 AM 6.8 °F -7.8 °F 1.4 °F 79% 30.10 in 7.0 mi NW 10.4 mph - N/A   Overcast
5:35 AM 5.0 °F -12.3 °F -4.0 °F 66% 30.11 in 10.0 mi WNW 13.8 mph - N/A   Scattered Clouds
5:55 AM 5.0 °F -12.3 °F -4.0 °F 66% 30.11 in 10.0 mi WNW 13.8 mph 17.3 mph N/A   Clear
6:45 AM 3.2 °F -11.3 °F -5.8 °F 66% 30.10 in 10.0 mi WNW 9.2 mph - N/A   Clear
7:45 AM 3.2 °F -13.9 °F -5.8 °F 66% 30.11 in 10.0 mi NW 12.7 mph - N/A   Clear
8:45 AM 3.2 °F -14.6 °F -5.8 °F 66% 30.14 in 10.0 mi WNW 13.8 mph 21.9 mph N/A   Mostly Cloudy
9:45 AM 3.2 °F -16.5 °F -7.6 °F 61% 30.15 in 10.0 mi West 17.3 mph 26.5 mph N/A   Scattered Clouds
10:45 AM 3.2 °F -17.1 °F -9.4 °F 56% 30.16 in 10.0 mi West 18.4 mph 24.2 mph N/A   Scattered Clouds
11:45 AM 3.2 °F -17.1 °F -11.2 °F 51% 30.15 in 10.0 mi West 18.4 mph 24.2 mph N/A   Scattered Clouds
12:45 PM 5.0 °F -14.2 °F -11.2 °F 47% 30.13 in 10.0 mi WNW 17.3 mph 26.5 mph N/A   Clear
1:45 PM 3.2 °F -18.6 °F -13.0 °F 47% 30.14 in 10.0 mi West 21.9 mph 27.6 mph N/A   Mostly Cloudy
2:45 PM 3.2 °F -17.6 °F -11.2 °F 51% 30.14 in 10.0 mi WNW 19.6 mph 27.6 mph N/A   Mostly Cloudy
3:45 PM 5.0 °F -15.7 °F -11.2 °F 47% 30.15 in 10.0 mi West 20.7 mph 24.2 mph N/A   Mostly Cloudy
3:54 PM 5.0 °F -15.7 °F -11.2 °F 47% 30.15 in 10.0 mi West 20.7 mph 24.2 mph N/A   Mostly Cloudy
5:45 PM 1.4 °F -18.2 °F -11.2 °F 56% 30.18 in 10.0 mi West 16.1 mph 23.0 mph N/A   Clear
5:50 PM 35.6 °F 32.8 °F 28.4 °F 75% 29.89 in 2.5 mi North 3.5 mph - N/A Snow Light Snow
6:45 PM -0.4 °F -17.6 °F -11.2 °F 60% 30.20 in 10.0 mi WNW 11.5 mph 18.4 mph N/A   Clear
7:45 PM -0.4 °F -19.2 °F -11.2 °F 60% 30.21 in 10.0 mi WNW 13.8 mph - N/A   Clear
8:15 PM -0.4 °F -16.7 °F -9.4 °F 66% 30.22 in 10.0 mi NW 10.4 mph - N/A   Scattered Clouds
8:35 PM -0.4 °F -17.6 °F -11.2 °F 60% 30.22 in 10.0 mi NW 11.5 mph - N/A   Scattered Clouds
8:45 PM -0.4 °F -17.6 °F -11.2 °F 60% 30.22 in 10.0 mi WNW 11.5 mph - N/A   Scattered Clouds
8:55 PM -0.4 °F -20.5 °F -13.0 °F 55% 30.23 in 10.0 mi WNW 16.1 mph 19.6 mph N/A   Mostly Cloudy
9:15 PM -0.4 °F -19.2 °F -11.2 °F 60% 30.23 in 10.0 mi WNW 13.8 mph 17.3 mph N/A   Mostly Cloudy
9:35 PM -0.4 °F -19.9 °F -13.0 °F 55% 30.24 in 10.0 mi NW 15.0 mph 24.2 mph N/A   Scattered Clouds
9:55 PM -0.4 °F -21.2 °F -13.0 °F 55% 30.24 in 10.0 mi WNW 17.3 mph 21.9 mph N/A   Scattered Clouds
10:15 PM -0.4 °F -19.2 °F -13.0 °F 55% 30.24 in 10.0 mi WNW 13.8 mph 20.7 mph N/A   Scattered Clouds
10:35 PM -0.4 °F -17.6 °F -13.0 °F 55% 30.25 in 10.0 mi WNW 11.5 mph 18.4 mph N/A   Scattered Clouds
10:55 PM -2.2 °F -21.5 °F -13.0 °F 60% 30.25 in 10.0 mi NW 13.8 mph - N/A   Mostly Cloudy
11:15 PM -2.2 °F -21.5 °F -13.0 °F 60% 30.25 in 10.0 mi WNW 13.8 mph 20.7 mph N/A   Overcast
11:35 PM -2.2 °F -23.5 °F -13.0 °F 60% 30.25 in 10.0 mi WNW 17.3 mph 25.3 mph N/A   Scattered Clouds
11:55 PM -4.0 °F -25.2 °F -13.0 °F 65% 30.25 in 10.0 mi WNW 16.1 mph 24.2 mph N/A   Mostly Cloudy